Location: B�rgermoos
(47.6500°N, 9.0667°E)
Time: 18:28:08
(UTC+00:00)

A-11 Canister half - Pass Details

Date: 11 August 2021
Orbit: 1526 x 1683 km, 47.3° (Epoch: 20 September)

Event Time Altitude Azimuth Distance (km) Brightness Sun altitude
Rises 12:44:48 0° 285° (WNW) 4,939 11.8 53.9°
Reaches altitude 10° 12:48:00 10° 284° (WNW) 3,944 11.4 53.6°
Maximum altitude 12:58:03 71° 203° (SSW) 1,738 11.1 52.6°
Drops below altitude 10° 13:07:49 10° 122° (ESE) 3,841 11.2 51.6°
Sets 13:10:53 0° 121° (ESE) 4,805 11.5 51.2°
